When you browse on this site, cookies collect data to enhance your experience and personalize the content and advertising you see.
Visit our Privacy Policy to learn more. By continuing to use the site, you agree to this use of cookies and data.
  • In Belgium
  • List of Countries
  • For 7 days
  • Water Temperature
  • Satellite Maps
  • Weather Map
  • Weather Widgets
  • user-avatar
    Login

    Hourly Weather Maloe Zagore

    Today, 24 June, Monday

    Time Temperature Precipitation Wind Pressure Humidity
    00:00 +13°C° 0 mm 1 mps 751 mmHg 72%
    01:00 +12°C° 0 mm 1 mps 751 mmHg 69%
    02:00 +11°C° 0 mm 1 mps 751 mmHg 70%
    03:00 +12°C° 0 mm 1 mps 751 mmHg 68%
    04:00 +13°C° 0 mm 1 mps 751 mmHg 66%
    05:00 +14°C° 0 mm 1 mps 751 mmHg 64%
    06:00 +15°C° 0 mm 1 mps 752 mmHg 58%
    07:00 +18°C° 0 mm 1 mps 752 mmHg 52%
    08:00 +20°C° 0 mm 1 mps 752 mmHg 44%
    09:00 +19°C° 0 mm 2 mps 752 mmHg 46%
    10:00 +19°C° 0 mm 3 mps 752 mmHg 47%
    11:00 +19°C° 0 mm 4 mps 752 mmHg 49%
    12:00 +19°C° 0.1 mm 4 mps 752 mmHg 50%
    13:00 +19°C° 0.1 mm 4 mps 752 mmHg 50%
    14:00 +19°C° 0.1 mm 4 mps 752 mmHg 51%
    15:00 +20°C° 0 mm 4 mps 752 mmHg 50%
    16:00 +20°C° 0 mm 3 mps 752 mmHg 49%
    17:00 +20°C° 0 mm 3 mps 752 mmHg 48%
    18:00 +18°C° 0.1 mm 3 mps 752 mmHg 57%
    19:00 +17°C° 0.1 mm 2 mps 753 mmHg 66%
    20:00 +15°C° 0.1 mm 2 mps 753 mmHg 75%
    21:00 +14°C° 0 mm 2 mps 753 mmHg 75%
    22:00 +13°C° 0 mm 2 mps 753 mmHg 75%
    23:00 +12°C° 0 mm 2 mps 753 mmHg 75%

    Tomorrow, 25 June, Tuesday

    Time Temperature Precipitation Wind Pressure Humidity
    00:00 +10°C° 0 mm 2 mps 754 mmHg 76%
    01:00 +10°C° 0 mm 2 mps 754 mmHg 76%
    02:00 +9°C° 0 mm 2 mps 755 mmHg 77%
    03:00 +10°C° 0 mm 2 mps 755 mmHg 75%
    04:00 +10°C° 0 mm 2 mps 755 mmHg 73%
    05:00 +12°C° 0 mm 2 mps 755 mmHg 71%
    06:00 +14°C° 0 mm 2 mps 755 mmHg 65%
    07:00 +16°C° 0 mm 2 mps 755 mmHg 60%
    08:00 +17°C° 0 mm 2 mps 756 mmHg 54%
    09:00 +18°C° 0 mm 2 mps 756 mmHg 50%
    10:00 +19°C° 0 mm 3 mps 755 mmHg 45%
    11:00 +21°C° 0 mm 3 mps 755 mmHg 41%
    12:00 +20°C° 0 mm 3 mps 755 mmHg 42%
    13:00 +20°C° 0 mm 3 mps 755 mmHg 43%
    14:00 +20°C° 0 mm 2 mps 755 mmHg 44%
    15:00 +20°C° 0 mm 2 mps 755 mmHg 47%
    16:00 +20°C° 0 mm 2 mps 755 mmHg 50%
    17:00 +20°C° 0 mm 1 mps 754 mmHg 54%
    18:00 +19°C° 0 mm 1 mps 754 mmHg 60%
    19:00 +18°C° 0 mm 1 mps 754 mmHg 67%
    20:00 +15°C° 0 mm 1 mps 754 mmHg 73%
    21:00 +14°C° 0 mm 1 mps 754 mmHg 74%
    22:00 +14°C° 0 mm 1 mps 753 mmHg 76%
    23:00 +13°C° 0 mm 1 mps 753 mmHg 77%

    Day after tomorrow, 26 June, Wednesday

    Time Temperature Precipitation Wind Pressure Humidity
    00:00 +13°C° 0 mm 1 mps 753 mmHg 76%
    01:00 +13°C° 0 mm 1 mps 753 mmHg 74%
    02:00 +13°C° 0 mm 1 mps 753 mmHg 73%
    03:00 +14°C° 0 mm 1 mps 753 mmHg 72%
    04:00 +14°C° 0 mm 2 mps 752 mmHg 72%
    05:00 +14°C° 0 mm 2 mps 752 mmHg 72%
    06:00 +16°C° 0 mm 2 mps 752 mmHg 66%
    07:00 +17°C° 0 mm 3 mps 752 mmHg 60%
    08:00 +18°C° 0 mm 3 mps 752 mmHg 53%
    09:00 +19°C° 0 mm 3 mps 751 mmHg 50%
    10:00 +20°C° 0 mm 3 mps 751 mmHg 48%
    11:00 +20°C° 0 mm 3 mps 750 mmHg 45%
    12:00 +20°C° 0.2 mm 3 mps 750 mmHg 52%
    13:00 +19°C° 0.2 mm 3 mps 750 mmHg 59%
    14:00 +18°C° 0.2 mm 3 mps 750 mmHg 66%
    15:00 +19°C° 0.3 mm 3 mps 749 mmHg 66%
    16:00 +19°C° 0.3 mm 2 mps 749 mmHg 67%
    17:00 +19°C° 0.3 mm 2 mps 748 mmHg 67%
    18:00 +18°C° 0.1 mm 1 mps 748 mmHg 73%
    19:00 +16°C° 0.1 mm 1 mps 747 mmHg 79%
    20:00 +13°C° 0.1 mm 0 mps 747 mmHg 85%
    21:00 +12°C° 0 mm 0 mps 747 mmHg 87%
    22:00 +11°C° 0 mm 0 mps 746 mmHg 89%
    23:00 +10°C° 0 mm 0 mps 746 mmHg 91%

    27 June, Thursday

    Time Temperature Precipitation Wind Pressure Humidity
    00:00 +11°C° 0 mm 1 mps 746 mmHg 92%
    01:00 +11°C° 0 mm 1 mps 745 mmHg 93%
    02:00 +10°C° 0 mm 1 mps 745 mmHg 94%
    03:00 +10°C° 0 mm 2 mps 744 mmHg 92%
    04:00 +12°C° 0 mm 2 mps 744 mmHg 89%
    05:00 +12°C° 0 mm 2 mps 743 mmHg 87%
    06:00 +13°C° 0 mm 3 mps 743 mmHg 80%
    07:00 +16°C° 0 mm 3 mps 742 mmHg 73%
    08:00 +17°C° 0 mm 4 mps 741 mmHg 67%
    09:00 +18°C° 0 mm 4 mps 741 mmHg 65%
    10:00 +18°C° 0 mm 3 mps 740 mmHg 63%
    11:00 +18°C° 0 mm 3 mps 739 mmHg 61%
    12:00 +18°C° 0.1 mm 3 mps 739 mmHg 65%
    13:00 +18°C° 0.1 mm 3 mps 738 mmHg 69%
    14:00 +17°C° 0.1 mm 3 mps 738 mmHg 73%
    15:00 +17°C° 0.1 mm 3 mps 737 mmHg 74%
    16:00 +16°C° 0.1 mm 2 mps 736 mmHg 75%
    17:00 +16°C° 0.1 mm 2 mps 736 mmHg 76%
    18:00 +15°C° 0 mm 2 mps 736 mmHg 79%
    19:00 +15°C° 0 mm 2 mps 735 mmHg 82%
    20:00 +14°C° 0 mm 2 mps 735 mmHg 84%
    21:00 +14°C° 0.1 mm 2 mps 735 mmHg 87%
    22:00 +14°C° 0.1 mm 2 mps 734 mmHg 91%
    23:00 +13°C° 0.1 mm 2 mps 734 mmHg 94%

    28 June, Friday

    Time Temperature Precipitation Wind Pressure Humidity
    00:00 +13°C° 0 mm 2 mps 734 mmHg 93%
    01:00 +12°C° 0 mm 3 mps 733 mmHg 93%
    02:00 +11°C° 0 mm 3 mps 733 mmHg 92%
    03:00 +11°C° 0.1 mm 3 mps 733 mmHg 92%
    04:00 +11°C° 0.1 mm 4 mps 732 mmHg 91%
    05:00 +11°C° 0.1 mm 4 mps 732 mmHg 91%
    06:00 +12°C° 0.1 mm 4 mps 732 mmHg 87%
    07:00 +12°C° 0.1 mm 4 mps 732 mmHg 82%
    08:00 +13°C° 0.1 mm 5 mps 731 mmHg 78%
    09:00 +13°C° 0.6 mm 5 mps 731 mmHg 82%
    10:00 +12°C° 0.6 mm 5 mps 731 mmHg 86%
    11:00 +12°C° 0.6 mm 5 mps 731 mmHg 91%
    12:00 +12°C° 1.6 mm 5 mps 731 mmHg 93%
    13:00 +10°C° 1.6 mm 5 mps 730 mmHg 95%
    14:00 +10°C° 1.6 mm 5 mps 730 mmHg 96%
    15:00 +10°C° 0.5 mm 5 mps 730 mmHg 96%
    16:00 +11°C° 0.5 mm 4 mps 730 mmHg 96%
    17:00 +11°C° 0.5 mm 4 mps 730 mmHg 96%
    18:00 +11°C° 0.4 mm 4 mps 730 mmHg 97%
    19:00 +10°C° 0.4 mm 4 mps 730 mmHg 97%
    20:00 +10°C° 0.4 mm 4 mps 730 mmHg 97%
    21:00 +10°C° 0.5 mm 4 mps 729 mmHg 97%
    22:00 +10°C° 0.5 mm 4 mps 729 mmHg 98%
    23:00 +10°C° 0.5 mm 4 mps 729 mmHg 98%

    29 June, Saturday

    Time Temperature Precipitation Wind Pressure Humidity
    00:00 +10°C° 2.6 mm 4 mps 728 mmHg 98%
    01:00 +10°C° 2.6 mm 4 mps 728 mmHg 98%
    02:00 +10°C° 2.6 mm 4 mps 728 mmHg 98%
    03:00 +10°C° 1.9 mm 4 mps 727 mmHg 98%
    04:00 +11°C° 1.9 mm 4 mps 727 mmHg 98%
    05:00 +11°C° 1.9 mm 3 mps 727 mmHg 98%
    06:00 +11°C° 0.3 mm 3 mps 727 mmHg 98%
    07:00 +12°C° 0.3 mm 3 mps 727 mmHg 98%
    08:00 +13°C° 0.3 mm 3 mps 727 mmHg 97%
    09:00 +13°C° 0.6 mm 3 mps 728 mmHg 97%
    10:00 +13°C° 0.6 mm 3 mps 728 mmHg 97%
    11:00 +14°C° 0.6 mm 4 mps 729 mmHg 96%
    12:00 +14°C° 0.8 mm 4 mps 729 mmHg 95%
    13:00 +15°C° 0.8 mm 4 mps 729 mmHg 94%
    14:00 +15°C° 0.8 mm 5 mps 729 mmHg 93%
    15:00 +15°C° 0.7 mm 5 mps 730 mmHg 93%
    16:00 +15°C° 0.7 mm 5 mps 730 mmHg 93%
    17:00 +15°C° 0.7 mm 5 mps 730 mmHg 93%
    18:00 +14°C° 0.2 mm 5 mps 731 mmHg 94%
    19:00 +14°C° 0.2 mm 5 mps 731 mmHg 95%
    20:00 +13°C° 0.2 mm 5 mps 731 mmHg 96%
    21:00 +13°C° 0.2 mm 5 mps 732 mmHg 96%
    22:00 +13°C° 0.2 mm 4 mps 732 mmHg 97%
    23:00 +13°C° 0.2 mm 4 mps 732 mmHg 97%
    Show more